SHIYAN-32 01

Last updated on Tue Dec 09 2025 00:02:05 GMT+0000 (Coordinated Universal Time)

1 66376U 25255A 25342.80144992 .00025982 00000+0 59404-3 0 9990 2 66376 52.9951 196.8110 0013619 29.3953 330.7814 15.42592120 4740
UTC large
Height (km)
Speed (km/s)
/
Latitude / Longitude
Inclination (degrees)
Orbital Period (minutes)
Azimuth
Elevation
Range (km)
Doppler Factor

Next 0 passes for location: London (51.5072 / 0.1276)

Sorry there are no passes over London.